Flag for Canada Weather past 2 weeks in Newmarket, Ontario, Canada

Now
70 °F

Sunny.


Feels Like: 70 °F
Forecast: N/A
Wind: 14 mph from Southeast

Location: Borden

Current Time: Jun 3, 2015 at 7:47:46 PM

Latest Report: Jun 3, 2015 at 7:00 PM


Visibility: 9 mi

Pressure: 30.12 "Hg

Humidity: 35%

Dew point: 41 °F

Location of NewmarketLocation

Historic Weather in Newmarket — Graph

°F

Newmarket temperature yesterday

Maximum temperature yesterday: 72 °F (at 5:00 PM)
Minimum temperature yesterday: 34 °F (at 6:00 AM)
Average temperature yesterday: 53 °F

Past Weeks' High & Low Weather Summary

 TemperatureHumidityPressure
High86 °F (May 26, 2:00 PM)100% (May 23, 3:00 AM)30.40 "Hg (May 23, 3:00 AM)
Low27 °F (May 23, 1:00 AM)20% (May 24, 2:00 PM)29.83 "Hg (May 21, 8:00 PM)
Average59 °F67%30.11 "Hg
* Reported May 19 7:00 PM — Jun 3 7:00 PM, Newmarket, Weather by CustomWeather, © 2015

Note: Actual official high and low records may vary slightly from our data, if they occured in-between our weather recording intervals... More about our weather records

Advertising

Newmarket weather history for previous 24 hours

 ConditionsComfort  
Time TempWeatherWind HumidityBarometerVisibility
7:00 PM
Wed, Jun 3
70 °FSunny.14 mph35%30.12 "Hg9 mi
6:00 PM72 °FSunny.15 mph31%30.13 "Hg9 mi
5:00 PM72 °FSunny.12 mph31%30.14 "Hg9 mi
4:00 PM72 °FSunny.14 mph31%30.16 "Hg9 mi
3:00 PM72 °FSunny.16 mph33%30.17 "Hg9 mi
2:00 PM72 °FSunny.16 mph33%30.18 "Hg9 mi
1:00 PM70 °FSunny.14 mph40%30.20 "Hg9 mi
12:00 PM68 °FSunny.17 mph40%30.22 "Hg9 mi
11:00 AM66 °FSunny.13 mph49%30.23 "Hg9 mi
10:00 AM63 °FSunny.10 mph56%30.24 "Hg9 mi
9:00 AM57 °FSunny.13 mph67%30.25 "Hg9 mi
8:00 AM54 °FSunny.6 mph77%30.24 "Hg9 mi
7:00 AM46 °FSunny.No wind93%30.24 "Hg9 mi
6:02 AM37 °FClear.No wind100%30.22 "Hg1 mi
5:00 AM39 °FClear.No wind93%30.22 "Hg9 mi
4:00 AM41 °FClear.2 mph100%30.21 "Hg9 mi
3:00 AM45 °FClear.5 mph93%30.21 "Hg9 mi
2:00 AM46 °FClear.3 mph93%30.22 "Hg9 mi
1:00 AM48 °FClear.5 mph87%30.21 "Hg9 mi
12:00 AM48 °FClear.5 mph82%30.21 "Hg9 mi
11:00 PM
Tue, Jun 2
46 °FClear.2 mph82%30.20 "Hg9 mi
10:00 PM50 °FClear.No wind67%30.19 "Hg9 mi
9:00 PM55 °FSunny.2 mph59%30.18 "Hg9 mi
8:00 PM63 °FSunny.7 mph45%30.16 "Hg9 mi
7:00 PM68 °FPassing clouds.7 mph46%30.14 "Hg9 mi
Weather by CustomWeather, © 2015

See weather overviewHow to use our weather pages